Lær å fly hos oss!

Oslo Flyveklubb har i mange år utdannet flygere til privatflygersetifikat PPL(A). Skolen har godkjenning for å drive utdanning til teoriundervisning til PPL(A), privatflygersertifikat PPL (A) og mørkeflyging.

Gi bort en flytur i gave

På en introduksjonstur vil kandidaten være med på forberedelser til, og gjennomføring av en flytur på en times varighet med en av våre instruktører.

Hvor vi holder til?

Flyplassen ligger i Lillestrøm 10 minutter med tog fra Oslo. Følg storgata fra Lillestrøms sentrum så vill man se plassen på venstre side.
Metar/TAF Gardermoen:

ENGM 180050Z 17014KT 9999 SCT012 SCT017 BKN020 14/12 Q1000

TAF AMD ENGM 171912Z 1719/1818 15012KT 9999 BKN008 TEMPO 1719/1807 4000 SHRA BKN015 SCT020CB BECMG 1807/1809 BKN020 TEMPO 1815/1818 FEW020CB BKN030